GSAT0206 (GALILEO 10)

Last updated on Sat Apr 11 2026 00:02:38 GMT+0000 (Coordinated Universal Time)

1 40890U 15045B 26099.82693463 .00000003 00000+0 00000+0 0 9994 2 40890 54.9674 223.4906 0002671 44.7290 315.2709 1.70473971 65878
UTC large
Height (km)
Speed (km/s)
/
Latitude / Longitude
Inclination (degrees)
Orbital Period (minutes)
Azimuth
Elevation
Range (km)
Doppler Factor

Next 0 passes for location: London (51.5072 / 0.1276)

Sorry there are no passes over London.
GSAT0206 (GALILEO 10)